User: anonymous
Location: PACMO
(41.3967°N, 90.3760°W)
Time: 14:03:24
(UTC-05:00)
Language:

BREEZE-M DEB (TANK) - Orbit

View from above orbital plane
View from above orbital plane
View from above satellite
View from above satellite

Ground track
Ground track

The orbit data is extracted from the following two-line orbital elements,

1 31863U 07032B   14106.81028703  .00001468  00000-0  73492-3 0  2219
2 31863 045.9423 275.3586 5009642 050.9179 343.9867 05.50547956135660
Epoch (UTC): 16 April 2014 19:26:48
Eccentricity: 0.5009642
inclination: 45.9423°
perigee height: 383 km
apogee height: 13956 km
right ascension of ascending node: 275.3586°
argument of perigee: 50.9179°
revolutions per day: 5.50547956
mean anomaly at epoch: 343.9867°
orbit number at epoch: 13566

The dashed part of the orbit path shows where the satellite is in the earth's shadow,  

DLR